Location: Clyde
(45.1830°S, 169.3170°E)
Time: 00:36:21
(UTC+13:00)

Cosmos 1844 Rocket - Pass Details

Date: 24 January 2019
Orbit: 824 x 845 km, 71.0° (Epoch: 21 February)

Event Time Altitude Azimuth Distance (km) Brightness Sun altitude
Rises 22:51:12 0° 202° (SSW) 3,408 7.2 -13.3°
Reaches altitude 10° 22:53:49 10° 194° (SSW) 2,471 6.1 -13.6°
Maximum altitude 22:59:10 41° 124° (SE) 1,204 3.4 -14.2°
Enters shadow 23:02:44 20° 63° (ENE) 1,878 4.0 -14.7°
